{"data":{"norad_id":45228,"intl_designator":"2020-012BC","name":"STARLINK-1222","alt_names":[],"object_type":"PAYLOAD","status":"ACTIVE","operator":null,"country":"US","launch_date":"2020-02-17","launch_site_code":"AFETR","launch_vehicle":null,"mission":null,"orbit_class":"UNKNOWN","rcs_meters":null,"size_class":null,"mass_kg":null,"dimensions":null,"purposes":["comms"],"wikipedia_slug":null,"has_3d_model":false,"image_url":null,"decayed_at":null,"tle_current":{"epoch":"2026-05-24T19:24:12.480192Z","epoch_age_seconds":88910,"freshness":"FRESH","line1":"1 45228U 20012BC  26144.80847778  .00034124  00000+0  52235-3 0  9995","line2":"2 45228  53.0539 336.5718 0000739  57.3671 302.7410 15.54064175347446","mean_motion":15.54064175,"eccentricity":7.39e-5,"inclination_deg":53.0539,"raan_deg":336.5718,"arg_perigee_deg":57.3671,"mean_anomaly_deg":302.741,"bstar":0.00052235,"rev_number":34744,"period_min":92.660266105163,"perigee_km":404.37305762396,"apogee_km":405.37558669738,"semimajor_km":6783.0113221607,"source":"CELESTRAK","updated_at":"2026-05-25T13:38:16.385242Z"}}}